Alturas, CA

9:44 AM PDT on August 21, 2017 (GMT -0700)
Alturas Municipal

Weather History for KAAT - March, 2014

Change the Weather History Date:

Monday, March 24, 2014

  Actual Average Record
Temperature  
Mean Temperature 44 °F 39 °F  
Max Temperature 70 °F 53 °F 80 °F (1960)
Min Temperature 17 °F 25 °F 8 °F (1913)
Degree Days  
Heating Degree Days 21 26  
Month to date heating degree days 561 647  
Since 1 July heating degree days 5326 5514  
Cooling Degree Days 0 0  
Month to date cooling degree days 0 0  
Year to date cooling degree days 0 0  
Moisture  
Dew Point 14 °F    
Average Humidity 43    
Maximum Humidity 77    
Minimum Humidity 8    
Precipitation  
Precipitation 0.00 in 0.05 in 0.40 in (1948)
Month to date precipitation 1.25 1.13  
Year to date precipitation 2.85 4.23  
Sea Level Pressure  
Sea Level Pressure 30.14 in    
Wind  
Wind Speed 6 mph (WSW)    
Max Wind Speed 21 mph    
Max Gust Speed 26 mph    
Visibility 10 miles    
Events      
T = Trace of Precipitation, MM = Missing Value Source: NWS Daily Summary

Daily Weather History Graph

Daily Weather History Graph

Search for Another Location

Airport or City:

Trip Planner

Search our weather history database for the weather conditions in past years. The results will help you decide how hot, cold, wet, or windy it might be!

Date:

Astronomy

Mar. 24, 2014 Rise Set
Actual Time 6:58 AM PDT 7:18 PM PDT
Civil Twilight 6:30 AM PDT 7:46 PM PDT
Nautical Twilight 5:58 AM PDT 8:19 PM PDT
Astronomical Twilight 5:25 AM PDT 8:52 PM PDT
Moon 2:37 AM PDT (3/24) 12:46 PM PDT (3/24)
Length of Visible Light 13h 15m
Length of Day
12h 20m
Last Quarter, 42% of the Moon is Illuminated
Mar 24
Last Quarter
Mar 30
New
Apr 7
First Quarter
Apr 15
Full
Apr 22
Last Quarter

Hourly Weather History & Observations

Time (PDT) Temp. Windchill Dew Point Humidity Pressure Visibility Wind Dir Wind Speed Gust Speed Precip Events Conditions
12:55 AM 30.0 °F - 15.1 °F 54% 30.22 in 6.0 mi Calm Calm - N/A   Haze
1:55 AM 23.0 °F 18.4 °F 14.0 °F 68% 30.23 in 10.0 mi NNW 3.5 mph - N/A   Clear
2:55 AM 24.1 °F - 14.0 °F 65% 30.22 in 10.0 mi Calm Calm - N/A   Clear
3:55 AM 21.9 °F - 14.0 °F 72% 30.21 in 10.0 mi Calm Calm - N/A   Clear
4:55 AM 23.0 °F - 14.0 °F 68% 30.20 in 10.0 mi Calm Calm - N/A   Clear
5:55 AM 21.9 °F - 15.1 °F 75% 30.21 in 10.0 mi Calm Calm - N/A   Clear
6:55 AM 19.0 °F - 12.9 °F 77% 30.22 in 10.0 mi Calm Calm - N/A   Clear
7:55 AM 25.0 °F - 17.1 °F 72% 30.23 in 10.0 mi Calm Calm - N/A   Clear
8:55 AM 36.0 °F - 19.9 °F 52% 30.22 in 10.0 mi Calm Calm - N/A   Clear
9:55 AM 46.0 °F - 21.9 °F 39% 30.21 in 10.0 mi Calm Calm - N/A   Clear
10:55 AM 55.9 °F - 19.9 °F 25% 30.19 in - ESE 4.6 mph - N/A   Unknown
11:55 AM 63.0 °F - 16.0 °F 16% 30.16 in 10.0 mi SSW 8.1 mph - N/A   Clear
12:55 PM 64.9 °F - 12.9 °F 13% 30.13 in 10.0 mi West 8.1 mph - N/A   Clear
1:55 PM 69.1 °F - 12.0 °F 11% 30.11 in 10.0 mi West 15.0 mph 20.7 mph N/A   Clear
2:55 PM 69.1 °F - 6.1 °F 9% 30.09 in 10.0 mi WSW 15.0 mph 24.2 mph N/A   Clear
3:55 PM 69.1 °F - 12.0 °F 11% 30.07 in 10.0 mi WSW 16.1 mph 26.5 mph N/A   Clear
4:55 PM 66.9 °F - 12.9 °F 12% 30.05 in 10.0 mi West 16.1 mph 19.6 mph N/A   Clear
5:55 PM 66.0 °F - 16.0 °F 15% 30.04 in 10.0 mi WSW 13.8 mph - N/A   Clear
6:55 PM 60.1 °F - 7.0 °F 12% 30.06 in 10.0 mi West 15.0 mph 24.2 mph N/A   Clear
7:55 PM 54.0 °F - 3.9 °F 13% 30.06 in 10.0 mi West 15.0 mph - N/A   Clear
8:55 PM 48.9 °F - 12.0 °F 23% 30.06 in 10.0 mi SE 6.9 mph - N/A   Clear
9:55 PM 46.0 °F 43.1 °F 12.0 °F 25% 30.04 in 10.0 mi East 5.8 mph - N/A   Clear
10:55 PM 41.0 °F 38.0 °F 12.9 °F 32% 30.02 in 10.0 mi ENE 4.6 mph - N/A   Clear
11:55 PM 32.0 °F - 12.0 °F 44% 30.01 in 10.0 mi Calm Calm - N/A   Clear